This is the latest recevied weather packets stored in our database for station/object KB3VSP. If no packets are shown the sender has not sent any weather packets the latest 10 day(s).
| Time | Temp. | Humidity | Pressure | Rain* | Wind** | Luminosity | Snow |
|---|---|---|---|---|---|---|---|
| 1777554987 | 5.56° C | 99% | 1011.9 hPa | 0 mm | - | 29 W/m² | - |
| 1777554684 | 5.56° C | 99% | 1011.9 hPa | 0 mm | - | 29 W/m² | - |
| 1777554381 | 5.56° C | 99% | 1011.7 hPa | 0 mm | - | 39 W/m² | - |
| 1777554078 | 5.56° C | 99% | 1011.6 hPa | 0 mm | - | 40 W/m² | - |
| 1777553775 | 5.56° C | 99% | 1011.8 hPa | 0 mm | - | 33 W/m² | - |
| 1777553471 | 5.56° C | 99% | 1011.7 hPa | 0 mm | - | 29 W/m² | - |
| 1777553167 | 5.56° C | 99% | 1012 hPa | 0 mm | - | 30 W/m² | - |
| 1777552862 | 5.56° C | 99% | 1011.7 hPa | 0 mm | - | 16 W/m² | - |
| 1777552558 | 6.11° C | 99% | 1011.6 hPa | 0 mm | - | 26 W/m² | - |
| 1777552254 | 6.11° C | 99% | 1011.7 hPa | 0 mm | - | 18 W/m² | - |
| 1777551951 | 6.11° C | 99% | 1011.5 hPa | 0 mm | - | 12 W/m² | - |
| 1777551649 | 6.11° C | 99% | 1011.5 hPa | 0 mm | - | 15 W/m² | - |
| 1777551346 | 6.11° C | 99% | 1011.3 hPa | 0 mm | - | 18 W/m² | - |
| 1777551042 | 6.67° C | 99% | 1011.2 hPa | 0 mm | - | 10 W/m² | - |
| 1777550739 | 6.67° C | 99% | 1011.3 hPa | 0 mm | - | 6 W/m² | - |
| 1777550435 | 7.22° C | 99% | 1010.9 hPa | 1.78 mm | - | 5 W/m² | - |
| 1777550132 | 7.22° C | 99% | 1010.9 hPa | 1.78 mm | - | 9 W/m² | - |
| 1777549828 | 7.22° C | 99% | 1011 hPa | 0 mm | - | 10 W/m² | - |
| 1777549524 | 7.78° C | 99% | 1010.8 hPa | 0 mm | - | 15 W/m² | - |
| 1777549221 | 7.22° C | 99% | 1010.8 hPa | 1.27 mm | - | 11 W/m² | - |
| 1777548917 | 7.78° C | 99% | 1010.7 hPa | 4.32 mm | - | 10 W/m² | - |
| 1777548615 | 7.78° C | 99% | 1010.9 hPa | 6.1 mm | - | 7 W/m² | - |
| 1777548311 | 7.78° C | 99% | 1010.8 hPa | 7.11 mm | - | 7 W/m² | - |
| 1777548009 | 8.33° C | 98% | 1010.5 hPa | 4.32 mm | - | 5 W/m² | - |
| 1777547703 | 8.33° C | 97% | 1010.4 hPa | 0 mm | - | 2 W/m² | - |
* Rain latest hour (hover to see other rain measurements)
** Current wind speed in m/s (hover to see current wind gust speed)